sat.trackr.live / text

‹ back to catalog

STARLINK-34576

NORAD 64701 · 2025-142F

PAYLOAD ACTIVE UNKNOWN

§ Identity

Operator
Country
US
Launch date
2025-06-28
Launch site
AFWTR
Launch vehicle
Mass (kg)
RCS (m²)

Purposes: comms

External: N2YO · Heavens-Above · Gunter

§ Orbital elements

Epoch: 2026-05-25T04:42:36.406944Z

Period
96.11 min
Inclination
69.9999°
Eccentricity
0.0003624
Mean motion
14.98340348 rev/d
Perigee alt
569.5 km
Apogee alt
574.5 km
Semi-major
6,950.2 km
B*
3.7753e-4
RAAN
121.4085°
Arg perigee
261.4068°
Mean anomaly
98.6680°
Rev number
5,093

§ Raw data

STARLINK-345761 64701U 25142F   26145.19625471  .00004416  00000+0  37753-3 0  99972 64701  69.9999 121.4085 0003624 261.4068  98.6680 14.98340348 50932

JSON: /api/v1/satellites/64701 · /tle

For live sub-satellite position, see the globe view (requires WebGL).

§ Visibility from observer

Set your observer location to see the next 7 days of passes ≥ 10°. The values pass through the URL so the page stays shareable.

No JS? Fill the form by hand. The geolocation button needs JavaScript.